sat.trackr.live / text

‹ back to catalog

STARLINK-35303

NORAD 65860 · 2025-223G

PAYLOAD ACTIVE UNKNOWN

§ Identity

Operator
Country
US
Launch date
2025-10-03
Launch site
AFWTR
Launch vehicle
Mass (kg)
RCS (m²)

Purposes: comms

External: N2YO · Heavens-Above · Gunter

§ Orbital elements

Epoch: 2026-05-25T03:39:03.244032Z

Period
93.85 min
Inclination
53.1607°
Eccentricity
0.0001163
Mean motion
15.34399050 rev/d
Perigee alt
461.9 km
Apogee alt
463.5 km
Semi-major
6,840.8 km
B*
6.9503e-4
RAAN
298.9288°
Arg perigee
65.8929°
Mean anomaly
294.2195°
Rev number
3,591

§ Raw data

STARLINK-353031 65860U 25223G   26145.15212088  .00023178  00000+0  69503-3 0  99902 65860  53.1607 298.9288 0001163  65.8929 294.2195 15.34399050 35914

JSON: /api/v1/satellites/65860 · /tle

For live sub-satellite position, see the globe view (requires WebGL).

§ Visibility from observer

Set your observer location to see the next 7 days of passes ≥ 10°. The values pass through the URL so the page stays shareable.

No JS? Fill the form by hand. The geolocation button needs JavaScript.